CST,Max TemperatureF,Mean TemperatureF,Min TemperatureF,Max Dew PointF,MeanDew PointF,Min DewpointF,Max Humidity, Mean Humidity, Min Humidity, Max Sea Level PressureIn, Mean Sea Level PressureIn, Min Sea Level PressureIn, Max VisibilityMiles, Mean VisibilityMiles, Min VisibilityMiles, Max Wind SpeedMPH, Mean Wind SpeedMPH, Max Gust SpeedMPH,PrecipitationIn, CloudCover, Events, WindDirDegrees
2014-2-1,19,8,-5,10,2,-11,85,74,67,30.21,29.99,29.91,10,10,5,16,5,,0.00,2,Snow,255
2014-2-2,10,-2,-14,0,-7,-18,92,79,57,30.29,30.24,30.19,10,10,10,9,4,,0.00,0,,238
2014-2-3,14,6,-2,5,-1,-6,92,80,67,30.35,30.22,30.16,10,10,7,9,5,,0.00,0,,245
2014-2-4,8,0,-9,0,-5,-15,92,75,61,30.45,30.40,30.35,10,10,10,16,4,23,0.00,2,,340
2014-2-5,1,-4,-9,-6,-10,-15,84,70,60,30.50,30.47,30.42,10,9,2,17,12,21,0.00,2,,311
2014-2-6,1,-6,-14,-6,-12,-18,84,75,60,30.46,30.35,30.21,10,10,7,16,9,24,0.00,1,,258
2014-2-7,10,2,-5,-2,-8,-13,85,68,48,30.21,30.17,30.14,10,10,10,15,7,20,0.00,0,,242
2014-2-8,12,0,-13,7,-1,-17,92,84,73,30.15,30.11,30.06,10,9,4,7,1,,0.00,5,Snow,282
2014-2-9,6,-2,-11,3,-9,-17,92,75,61,30.38,30.26,30.15,10,10,10,18,10,21,0.00,0,Snow,292
2014-2-10,1,-8,-18,-8,-14,-24,92,74,60,30.46,30.44,30.39,10,10,10,10,6,,0.00,0,,271
2014-2-11,10,-6,-23,3,-10,-29,85,74,61,30.45,30.27,30.05,10,10,10,16,4,22,0.00,2,,171
2014-2-12,21,16,10,16,13,3,93,86,73,30.09,30.00,29.79,10,6,2,12,4,18,0.02,7,Snow,189
2014-2-13,32,16,1,25,10,-2,93,83,73,29.79,29.59,29.44,10,7,2,25,13,34,0.00,4,Snow,243
2014-2-14,12,5,-2,1,-2,-6,92,77,62,30.04,29.91,29.73,10,10,5,15,9,20,0.00,0,Snow,286
2014-2-15,17,5,-7,12,4,-11,92,83,73,30.03,29.90,29.77,10,8,0,14,4,,0.03,5,Snow,174
2014-2-16,19,10,0,12,7,-2,92,78,67,30.23,30.11,29.96,10,10,1,20,7,26,0.00,3,Snow,82
2014-2-17,28,21,10,23,17,9,100,85,74,29.97,29.76,29.64,10,5,0,21,12,31,0.04,6,Snow,192
2014-2-18,39,24,8,28,21,7,100,80,56,29.77,29.62,29.54,10,10,5,15,4,17,0.00,0,,256
2014-2-19,39,30,21,30,25,19,100,81,65,29.83,29.77,29.68,10,10,7,13,8,16,0.00,0,,203
2014-2-20,33,24,14,32,28,12,100,91,75,29.68,29.45,29.23,10,4,0,31,8,39,0.27,7,Rain-Snow,38
2014-2-21,15,9,3,10,6,0,92,82,73,29.76,29.53,29.29,10,5,1,28,22,36,0.00,2,Snow,275
2014-2-22,12,6,1,3,1,-2,85,76,67,30.12,29.97,29.77,10,10,10,17,12,24,0.00,0,,272
2014-2-23,12,6,0,7,0,-6,85,74,62,30.26,30.21,30.13,10,10,10,21,13,25,0.00,0,,276
2014-2-24,8,0,-7,1,-3,-11,92,75,56,30.32,30.29,30.26,10,9,3,14,10,18,0.00,1,Snow,274
2014-2-25,3,-3,-9,-2,-11,-18,92,71,60,30.33,30.29,30.24,10,10,7,20,12,24,0.00,0,,283
2014-2-26,17,2,-13,9,-7,-18,84,69,60,30.33,29.91,29.61,10,9,2,36,14,45,0.00,1,,265
2014-2-27,-2,-9,-16,-17,-22,-26,77,54,39,30.19,30.10,29.90,10,10,7,23,10,34,0.00,1,,292
2014-2-28,12,-3,-18,9,-5,-26,85,75,61,30.13,29.96,29.88,10,8,0,15,5,20,0.02,4,Snow,180